User: anonymous   Login
Location: Napoli
(40.8639°N, 14.2562°E)
Time: 00:09:55
(UTC+01:00)
Language:

SCOT-1 (SCOT) - Orbit

View from above orbital plane
View from above orbital plane
View from above satellite
View from above satellite

Ground track
Ground track

The orbit data is extracted from the following two-line orbital elements,

1 62617U 25009J   25322.11815923  .00035503  00000-0  11058-2 0  9995
2 62617  97.4087  41.7999 0004896 356.0135   4.1067 15.33177567 46809
Epoch (UTC): 18 November 2025 02:50:08
Eccentricity: 0.0004896
inclination: 97.4087°
perigee height: 463 km
apogee height: 469 km
right ascension of ascending node: 41.7999°
argument of perigee: 356.0135°
revolutions per day: 15.33177567
mean anomaly at epoch: 4.1067°
orbit number at epoch: 4680

The dashed part of the orbit path shows where the satellite is in the earth's shadow,  

DLR